Regional Weather Roundup
Issued by NWS Green Bay, WI

Home | Current Version | Previous Version | Graphics & Text | Print | Product List | Glossary Off
Versions: 1 2 3 4 5 6 7 8 9 10 11 12 13 14 15 16 17 18 19 20 21 22 23 24 25 26 27 28 29 30 31 32 33 34 35 36 37 38 39 40 41 42 43 44 45 46 47 48 49 50

000
ASUS43 KGRB 171559
RWRGRB

NORTH-CENTRAL AND NORTHEAST WISCONSIN REGIONAL WEATHER ROUNDUP
NATIONAL WEATHER SERVICE GREEN BAY WI
1100 AM CDT THU APR 17 2014

WIZ005-009-010>012-018-019-171700-
NORTH CENTRAL WISCONSIN

CITY           SKY/WX    TMP DP  RH WIND       PRES   REMARKS
IRONWOOD       CLOUDY    34  28  80 CALM      30.08R
MANITOWISH WTR NOT AVBL
ARBOR VITAE    NOT AVBL
EAGLE RIVER    NOT AVBL
LAND O LAKES   NOT AVBL
RHINELANDER    CLOUDY    33  31  92 SE3       30.09R
PHILLIPS       NOT AVBL
ANTIGO         NOT AVBL
TOMAHAWK       NOT AVBL
MERRILL        NOT AVBL
$$

WIZ013-073-171700-
NORTHEAST WISCONSIN

CITY           SKY/WX    TMP DP  RH WIND       PRES   REMARKS
IRON MOUNTAIN  LGT SNOW  33  30  88 SE7       30.11F VSB 1
MARINETTE      CLOUDY    36  30  80 SE10      30.14S
$$

WIZ017-030-035>037-045-171700-
CENTRAL WISCONSIN

CITY           SKY/WX    TMP DP  RH WIND       PRES   REMARKS
MEDFORD        NOT AVBL
WAUSAU         CLOUDY    38  33  82 CALM      30.09R
MOSINEE        NOT AVBL
MARSHFIELD     CLOUDY    43  36  76 W9        30.11R
WISC RAPIDS    PTSUNNY   49  34  56 NW13      30.11R
STEVENS POINT  NOT AVBL
WAUPACA        NOT AVBL
SHAWANO        NOT AVBL
CLINTONVILLE   NOT AVBL
$$

WIZ038-039-048-051-171700-
FOX VALLEY

CITY           SKY/WX    TMP DP  RH WIND       PRES   REMARKS
NWS GREEN BAY  CLOUDY    42  34  73 S9        30.11R
APPLETON       NOT AVBL
OSHKOSH        CLOUDY    46  34  62 SW12      30.10R
FOND DU LAC    CLOUDY    47  35  63 SW14G21   30.10R
$$

WIZ022-050-052-171700-
EAST CENTRAL WISCONSIN

CITY           SKY/WX    TMP DP  RH WIND       PRES   REMARKS
STURGEON BAY   CLOUDY    36  28  75 SE10      30.14S
MANITOWOC      NOT AVBL
SHEBOYGAN      CLOUDY    46  36  68 S10       30.11R
$$

LMZ563-521-522-541>543-171700-
LAKESHORE

STATION/POSITION TIME  TEMP    WIND        PRES    VSBY  WAVE
                       AIR SEA DIR/SP/G                  HT/PER
                 (UTC) (F)     (DEG/KT/KT) (MB)    (MI)  (FT/S)
SHEBOYGAN LKSHOR 1500   38     170/ 18/ 20 1020.3R
KEWAUNEE LKSHORE 1500   37     170/ 12/ 14 1021.1R
TWO RIVERS CG    1500   37                   N/A       6   5
NORTHPORT PIER   1500   33     130/ 14/ 17 1021.3S
SISTER BAY LKSHO 1500   35     150/  8/ 15   N/A
MENOMINEE LKSHOR 1500   34     140/  6/  8 1021.5R
$$



USA.gov is the U.S. government's official web portal to all federal, state and local government web resources and services.